Overview Statistics Trail Chart Weather Telemetry Raw packets
 

This is the latest recevied weather packets stored in our database for station/object KG5MMT-12. If no packets are shown the sender has not sent any weather packets the latest 10 day(s).

<< 21 22 23 24 25 26 27 >>
Time Temp. Humidity Pressure Rain* Wind** Luminosity Snow
1788545341 25.56° C 38% 0 hPa 0 mm - - -
1788545041 26.11° C 37% 0 hPa 0 mm - - -
1788544741 26.11° C 40% 0 hPa 0 mm - - -
1788544441 26.11° C 39% 0 hPa 0 mm - - -
1788544141 25.56° C 40% 0 hPa 0 mm - - -
1788543841 25° C 40% 0 hPa 0 mm - - -
1788543541 25° C 41% 0 hPa 0 mm - - -
1788543241 24.44° C 42% 0 hPa 0 mm - - -
1788542942 24.44° C 44% 0 hPa 0 mm - - -
1788542641 24.44° C 41% 0 hPa 0 mm - - -
1788542341 24.44° C 42% 0 hPa 0 mm - - -
1788542041 24.44° C 41% 0 hPa 0 mm - - -
1788541741 23.89° C 43% 0 hPa 0 mm - - -
1788541441 23.89° C 44% 0 hPa 0 mm - - -
1788541141 23.33° C 46% 0 hPa 0 mm - - -
1788540841 23.33° C 45% 0 hPa 0 mm - - -
1788540541 22.78° C 45% 0 hPa 0 mm - - -
1788540241 22.78° C 48% 0 hPa 0 mm - - -
1788539941 22.78° C 46% 0 hPa 0 mm - - -
1788539641 22.78° C 47% 0 hPa 0 mm - - -
1788539341 22.78° C 48% 0 hPa 0 mm - - -
1788539041 22.78° C 49% 0 hPa 0 mm - - -
1788538741 22.78° C 51% 0 hPa 0 mm - - -
1788538441 22.22° C 48% 0 hPa 0 mm - - -
1788538141 22.22° C 51% 0 hPa 0 mm - - -

* Rain latest hour (hover to see other rain measurements)
** Current wind speed in m/s (hover to see current wind gust speed)